Regional Weather Roundup
Issued by NWS

Home | Current Version | Previous Version | Text Only | Print | Product List | Glossary Off
Versions: 1 2 3 4 5 6 7 8 9 10 11 12 13 14 15 16 17 18 19 20 21 22 23 24 25 26 27

000
ASUS45 KTFX 180310
RWRMT
MONTANA REGIONAL WEATHER ROUNDUP
NATIONAL WEATHER SERVICE GREAT FALLS MT
900 PM MDT THU AUG 17 2017

NOTE: "FAIR" INDICATES FEW OR NO CLOUDS BELOW 12000 FEET WITH NO
SIGNIFICANT WEATHER AND/OR OBSTRUCTIONS TO VISIBILITY.

MTZ001>007-043-180400-
WEST OF THE DIVIDE

CITY           SKY/WX    TMP DP  RH WIND       PRES   REMARKS
KALISPELL      CLEAR     74  41  30 W7        30.01R
MISSOULA       CLEAR     74  39  28 NW7       30.05R
BUTTE          CLEAR     71  37  28 N10       30.17R
MULLAN PASS    CLEAR     59  38  45 W5        30.24R
ANACONDA         N/A     68  39  34 CALM      30.14R
DEER LODGE       N/A     66  39  37 W8        30.14R
EUREKA           N/A     75  41  29 MISG      30.00R
HAMILTON         N/A     73  39  29 NW3       30.07R
LIBBY            N/A     73  43  33 CALM      30.02R
PLAINS           N/A     75  42  30 CALM      30.04R
RONAN            N/A     76  39  26 W7        30.09R
$$

MTZ008-052>055-180400-
SOUTHWEST MONTANA

CITY           SKY/WX    TMP DP  RH WIND       PRES   REMARKS
BOZEMAN        CLEAR     68  39  34 E5        30.09R
DILLON         CLEAR     73  33  23 SW3       30.12R
W YELLOWSTONE  PTCLDY    63  37  39 SW3       30.24R
ENNIS          CLEAR     61  39  44 NE8       30.18R
THREE FORKS      N/A     67  40  37 CALM      30.06R
TWIN BRIDGES     N/A     72  31  22 CALM      30.09R
$$

MTZ009-010-012-014-046-048-049-054-180400-
EAST SLOPES AND CENTRAL MONTANA

CITY           SKY/WX    TMP DP  RH WIND       PRES   REMARKS
CUT BANK       CLEAR     71  38  29 W12       30.02R
GREAT FALLS    MOCLDY    73  37  27 E6        30.02R
MALMSTROM AFB  MOCLDY    74  35  24 E5        30.01R
HELENA         CLEAR     75  37  25 W7        30.06R
AUGUSTA        MOCLDY    73  34  24 NW8       30.08R
CHOTEAU          N/A     72  41  33 CALM      30.07R
FAIRFIELD        N/A     73  35  25 NE3       30.03R
POWER          MOCLDY    72  34  24 NE7       30.03R
RAYNESFORD       N/A     68  36  30 CALM      30.05R
ULM            MOCLDY    70  36  28 E7        30.02R
$$

MTZ011-013-016-021-045-047-050-051-180400-
NORTH CENTRAL MONTANA

CITY           SKY/WX    TMP DP  RH WIND       PRES   REMARKS
HAVRE          CLEAR     74  36  25 N6        29.97R
LEWISTOWN      CLEAR     72  33  24 CALM      30.06R
N BAR RANCH      N/A     66  32  28 W6        30.11R
CHINOOK          N/A     73  37  27 NW6       29.95R
DENTON           N/A     70  33  25 NW6       29.99R
GEYSER           N/A     69  34  26 CALM      30.05R
GRASS RANGE      N/A     73  32  22 SW3       30.01R
JUDITH GAP       N/A     65  35  33 N9        30.09R
WINIFRED       MOCLDY    69  33  25 N13       30.02R
$$

MTZ017>020-022>027-061-062-180400-
NORTHEAST MONTANA

CITY           SKY/WX    TMP DP  RH WIND       PRES   REMARKS
GLASGOW        CLEAR     69  40  34 NE8       29.92R
JORDAN           N/A     69  38  32 NE7       29.94R
SIDNEY         CLEAR     69  50  50 NW10      29.90R
WOLF POINT     CLEAR     70  42  36 CALM      29.92R
MALTA          CLOUDY    70  46  43 NE5       29.93R
PLENTYWOOD       N/A     66  52  59 CALM      29.93R
POPLAR           N/A     73  48  40 CALM      29.92R
SCOBEY           N/A     66  46  48 N2        29.95
$$

MTZ028>42-056>058-180400-
SOUTHCENTRAL AND SOUTHEAST MONTANA

CITY           SKY/WX    TMP DP  RH WIND       PRES   REMARKS
BAKER          PTCLDY    67  42  40 CALM      29.96R
BILLINGS       CLOUDY    76  34  21 N8        30.01R
LIVINGSTON     CLEAR     70  37  29 SW6       30.09R
MILES CITY     CLEAR     77  34  21 N12       29.93R
BIG TIMBER     CLEAR     68  34  28 W9        30.11R
EKALAKA          N/A     67  36  31 SE3       29.97R
FORSYTH          N/A     79  36  21 N3        29.94R
HARLOWTON        N/A     65  33  30 MISG      30.08R
LAUREL           N/A     74  34  23 CALM      30.01S
$$

REGIONAL REPORTS...DAKOTAS

CITY           SKY/WX    TMP DP  RH WIND       PRES   REMARKS
WILLISTON      CLEAR     73  54  51 N18       29.90R
MINOT          PTCLDY    69  56  62 E9        29.83R
DICKINSON      CLOUDY    64  49  57 W6        29.88S
BEACH            N/A     63  57  82 NW9       29.97R
CROSBY           N/A     68  55  64 NE7       29.91R
TIOGA          RAIN      64  61  88 N29       29.93R
WATFORD CITY     N/A     70  50  49 NW9       29.88R
BISMARCK       CLOUDY    70  58  65 SE7       29.84R
GRAND FORKS    PTCLDY    66  63  90 SW3       29.83R
FARGO          CLEAR     65  60  84 CALM      29.84R
BUFFALO SD       N/A     71  43  36 N12       29.89R
RAPID CITY     PTCLDY    61  53  75 W7        29.97R
$$

REGIONAL REPORTS...WYOMING/IDAHO/WASHINGTON

CITY           SKY/WX    TMP DP  RH WIND       PRES   REMARKS
GILLETTE       CLEAR     58  46  64 SW3       30.06R
SHERIDAN       PTCLDY    63  47  55 SE5       30.04R
BUFFALO WY     PTCLDY    62  40  44 W6        30.12R
CODY           CLEAR     68  40  35 W5        30.15R
YELLOWSTONE LA   N/A     51  41  68 CALM      30.35R
IDAHO FALLS    CLEAR     75  38  26 S13       30.12R
SALMON         CLOUDY    69  41  36 S6        30.06R
BOISE          CLEAR     79  34  19 NW5       30.03R
SPOKANE        PTCLDY    78  40  25 SW8       30.04S
$$

REGIONAL REPORTS...ALBERTA

CITY           SKY/WX    TMP DP  RH WIND       PRES   REMARKS
EDMONTON       MOCLDY    61  52  72 SW2       29.91R
CALGARY        PTCLDY    66  48  52 E7        29.98R SMOKE
LETHBRIDGE     MOCLDY    70  41  35 E10       29.95R
MEDICINE HAT   PTCLDY    72  43  35 SE2       29.93R
$$

REGIONAL REPORTS...SASKATCHEWAN

CITY           SKY/WX    TMP DP  RH WIND       PRES   REMARKS
SWIFT CURRENT  CLEAR     68  45  42 NW2       29.97R
REGINA         CLEAR     61  45  55 W8        29.92R SMOKE
SASKATOON      PTCLDY    61  52  72 W7        29.91R
$$




USA.gov is the U.S. government's official web portal to all federal, state and local government web resources and services.